,,Stat6,,Stat2,,Stat8,,Stat9,,Stat10,,Wind1,,Wind1,
time,status,PA1M_AVG,status,PR1M_SUM,status,RH1M_AVG,status,SR1M_AVG,status,TA1M_AVG,status,W1dAve1m,status,W1sAve1m,
2004-02-12, 00:00:01,VALID,919.943,VALID,0,VALID,93.3905,VALID,-0.0169808,VALID,19.9573,VALID,114,VALID,1.3892,
2004-02-12, 00:01:00,VALID,919.94,VALID,0,VALID,93.5965,VALID,0,VALID,19.9447,VALID,112,VALID,1.60781,
2004-02-12, 00:02:01,VALID,919.923,VALID,0,VALID,93.7071,VALID,-0.0169808,VALID,19.9221,VALID,114,VALID,1.22232,
2004-02-12, 00:03:00,VALID,919.908,VALID,0,VALID,93.9271,VALID,0,VALID,19.8734,VALID,121,VALID,1.5625,
2004-02-12, 00:04:00,VALID,919.879,VALID,0,VALID,94.0402,VALID,0.0169808,VALID,19.8701,VALID,106,VALID,1.47838,
2004-02-12, 00:05:00,VALID,919.872,VALID,0,VALID,93.9678,VALID,0,VALID,19.8831,VALID,122,VALID,1.33613,
2004-02-12, 00:06:00,VALID,919.856,VALID,0,VALID,93.9156,VALID,0,VALID,19.8925,VALID,126,VALID,1.18058,
2004-02-12, 00:07:01,VALID,919.842,VALID,0,VALID,93.9385,VALID,-0.0169808,VALID,19.9029,VALID,122,VALID,1.4407,
2004-02-12, 00:08:00,VALID,919.844,VALID,0,VALID,93.7681,VALID,-0.0169808,VALID,19.9221,VALID,112,VALID,1.54382,
2004-02-12, 00:09:00,VALID,919.829,VALID,0,VALID,93.7427,VALID,-0.0169808,VALID,19.9514,VALID,122,VALID,1.88205,
2004-02-12, 00:10:01,VALID,919.819,VALID,0,VALID,93.538,VALID,-0.0169808,VALID,19.9673,VALID,126,VALID,1.85283,
2004-02-12, 00:11:00,VALID,919.812,VALID,0,VALID,93.3994,VALID,0.0169808,VALID,19.9891,VALID,135,VALID,1.64744,
2004-02-12, 00:12:01,VALID,919.793,VALID,0,VALID,93.2747,VALID,0,VALID,19.9988,VALID,127,VALID,1.4474,
2004-02-12, 00:13:00,VALID,919.775,VALID,0,VALID,93.0993,VALID,-0.0169808,VALID,19.9963,VALID,96,VALID,1.06402,
2004-02-12, 00:14:00,VALID,919.772,VALID,0,VALID,93.2824,VALID,0,VALID,19.9606,VALID,107,VALID,1.31784,
2004-02-12, 00:15:01,VALID,919.75,VALID,0,VALID,93.4858,VALID,-0.0339617,VALID,19.9352,VALID,120,VALID,1.53563,
2004-02-12, 00:16:00,VALID,919.743,VALID,0,VALID,93.4896,VALID,0,VALID,19.9387,VALID,121,VALID,1.6529,
2004-02-12, 00:17:01,VALID,919.729,VALID,0,VALID,93.5596,VALID,-0.0169808,VALID,19.9156,VALID,128,VALID,1.53906,
2004-02-12, 00:18:01,VALID,919.729,VALID,0,VALID,93.6206,VALID,0,VALID,19.9089,VALID,111,VALID,1.50035,
2004-02-12, 00:19:01,VALID,919.734,VALID,0,VALID,93.7363,VALID,0,VALID,19.9022,VALID,132,VALID,1.40301,
2004-02-12, 00:20:00,VALID,919.733,VALID,0,VALID,93.7783,VALID,-0.0339617,VALID,19.9154,VALID,139,VALID,1.82143,
2004-02-12, 00:21:00,VALID,919.727,VALID,0,VALID,93.5405,VALID,-0.0169808,VALID,19.9673,VALID,134,VALID,1.60762,
2004-02-12, 00:22:01,VALID,919.731,VALID,0,VALID,93.4235,VALID,0,VALID,19.977,VALID,125,VALID,1.47713,
2004-02-12, 00:23:00,VALID,919.715,VALID,0,VALID,93.4693,VALID,-0.0169808,VALID,19.9867,VALID,138,VALID,1.73698,
2004-02-12, 00:24:00,VALID,919.717,VALID,0,VALID,93.4019,VALID,-0.0169808,VALID,20.0028,VALID,145,VALID,1.76315,
2004-02-12, 00:25:01,VALID,919.699,VALID,0,VALID,93.2048,VALID,-0.0169808,VALID,20.0289,VALID,124,VALID,1.95033,
2004-02-12, 00:26:01,VALID,919.69,VALID,0,VALID,92.9454,VALID,-0.0169808,VALID,20.0574,VALID,116,VALID,1.55048,
2004-02-12, 00:27:00,VALID,919.683,VALID,0,VALID,92.9149,VALID,-0.0169808,VALID,20.0704,VALID,122,VALID,1.46989,
2004-02-12, 00:28:01,VALID,919.692,VALID,0,VALID,92.8424,VALID,-0.0339617,VALID,20.0776,VALID,111,VALID,1.63033,
2004-02-12, 00:29:01,VALID,919.672,VALID,0,VALID,93.0344,VALID,-0.0339617,VALID,20.0478,VALID,131,VALID,1.64472,
2004-02-12, 00:30:01,VALID,919.677,VALID,0,VALID,92.9785,VALID,0,VALID,20.0701,VALID,136,VALID,1.63118,
2004-02-12, 00:31:01,VALID,919.666,VALID,0,VALID,92.6656,VALID,0,VALID,20.1096,VALID,116,VALID,1.24762,
2004-02-12, 00:32:00,VALID,919.66,VALID,0,VALID,92.7547,VALID,-0.0169808,VALID,20.0868,VALID,105,VALID,0.72168,
2004-02-12, 00:33:00,VALID,919.657,VALID,0,VALID,92.9161,VALID,-0.0169808,VALID,20.0448,VALID,107,VALID,0.858186,
2004-02-12, 00:34:00,VALID,919.643,VALID,0,VALID,93.1527,VALID,-0.0169808,VALID,19.9867,VALID,84,VALID,0.912861,
2004-02-12, 00:35:01,VALID,919.63,VALID,0,VALID,93.6562,VALID,-0.0169808,VALID,19.9412,VALID,105,VALID,0.955487,
2004-02-12, 00:36:01,VALID,919.618,VALID,0,VALID,93.7376,VALID,-0.0339617,VALID,19.9086,VALID,116,VALID,0.884487,
2004-02-12, 00:37:00,VALID,919.62,VALID,0,VALID,93.9169,VALID,0,VALID,19.9124,VALID,106,VALID,0.992535,
2004-02-12, 00:38:00,VALID,919.594,VALID,0,VALID,93.9271,VALID,0,VALID,19.9226,VALID,113,VALID,1.28962,
2004-02-12, 00:39:00,VALID,919.594,VALID,0,VALID,93.7999,VALID,-0.0169808,VALID,19.9188,VALID,104,VALID,1.1498,
2004-02-12, 00:40:00,VALID,919.6,VALID,0,VALID,93.8101,VALID,-0.0169808,VALID,19.9253,VALID,110,VALID,1.37101,
2004-02-12, 00:41:01,VALID,919.603,VALID,0,VALID,93.7249,VALID,0.0169808,VALID,19.9315,VALID,121,VALID,1.22008,
2004-02-12, 00:42:00,VALID,919.585,VALID,0,VALID,93.8457,VALID,-0.0169808,VALID,19.9476,VALID,134,VALID,1.4395,
2004-02-12, 00:43:01,VALID,919.581,VALID,0,VALID,93.8088,VALID,0,VALID,19.9571,VALID,141,VALID,0.917492,
2004-02-12, 00:44:01,VALID,919.558,VALID,0,VALID,93.6257,VALID,0,VALID,19.9931,VALID,112,VALID,0.866992,
2004-02-12, 00:45:01,VALID,919.543,VALID,0,VALID,93.3917,VALID,0,VALID,19.9991,VALID,88,VALID,0.364984,
2004-02-12, 00:46:01,VALID,919.542,VALID,0,VALID,93.2684,VALID,-0.0169808,VALID,19.9665,VALID,84,VALID,0.694404,
2004-02-12, 00:47:01,VALID,919.516,VALID,0,VALID,93.5558,VALID,-0.0169808,VALID,19.9476,VALID,83,VALID,1.01674,
2004-02-12, 00:48:00,VALID,919.511,VALID,0,VALID,93.7961,VALID,0,VALID,19.9283,VALID,114,VALID,0.892624,
2004-02-12, 00:49:01,VALID,919.493,VALID,0,VALID,93.88,VALID,-0.0339617,VALID,19.8898,VALID,124,VALID,1.39737,
2004-02-12, 00:50:00,VALID,919.488,VALID,0,VALID,93.9856,VALID,0,VALID,19.8667,VALID,134,VALID,1.02416,
2004-02-12, 00:51:01,VALID,919.498,VALID,0,VALID,93.983,VALID,0,VALID,19.8672,VALID,108,VALID,0.984201,
2004-02-12, 00:52:00,VALID,919.492,VALID,0,VALID,94.1076,VALID,0,VALID,19.8605,VALID,111,VALID,1.37591,
2004-02-12, 00:53:01,VALID,919.482,VALID,0,VALID,93.8838,VALID,-0.0169808,VALID,19.8766,VALID,111,VALID,1.14081,
2004-02-12, 00:54:01,VALID,919.474,VALID,0,VALID,93.8864,VALID,0,VALID,19.8736,VALID,116,VALID,1.49379,
2004-02-12, 00:55:01,VALID,919.46,VALID,0,VALID,93.8457,VALID,0,VALID,19.8903,VALID,113,VALID,1.11702,
2004-02-12, 00:56:01,VALID,919.445,VALID,0,VALID,93.9067,VALID,-0.0169808,VALID,19.8699,VALID,115,VALID,0.855291,
2004-02-12, 00:57:01,VALID,919.428,VALID,0,VALID,93.9563,VALID,-0.0509425,VALID,19.8677,VALID,101,VALID,0.96532,
2004-02-12, 00:58:01,VALID,919.433,VALID,0,VALID,94.0886,VALID,-0.0339617,VALID,19.8642,VALID,103,VALID,0.843178,
2004-02-12, 00:59:01,VALID,919.407,VALID,0,VALID,93.9907,VALID,-0.0679233,VALID,19.8485,VALID,99,VALID,1.41946,
2004-02-12, 01:00:01,VALID,919.413,VALID,0,VALID,93.8139,VALID,-0.101885,VALID,19.8818,VALID,94,VALID,0.980655,
2004-02-12, 01:01:01,VALID,919.42,VALID,0,VALID,93.5672,VALID,-0.118866,VALID,19.8751,VALID,80,VALID,0.560547,
2004-02-12, 01:02:01,VALID,919.414,VALID,0,VALID,93.5825,VALID,-0.101885,VALID,19.8625,VALID,111,VALID,1.17756,
2004-02-12, 01:03:01,VALID,919.412,VALID,0,VALID,93.5456,VALID,-0.101885,VALID,19.8652,VALID,133,VALID,0.898247,
2004-02-12, 01:04:01,VALID,919.402,VALID,0,VALID,93.5774,VALID,-0.0849042,VALID,19.8617,VALID,125,VALID,1.26722,
2004-02-12, 01:05:01,VALID,919.385,VALID,0,VALID,93.5837,VALID,-0.0679233,VALID,19.8714,VALID,128,VALID,2.04342,
2004-02-12, 01:06:01,VALID,919.353,VALID,0,VALID,93.5647,VALID,-0.101885,VALID,19.8908,VALID,135,VALID,1.83155,
2004-02-12, 01:07:01,VALID,919.33,VALID,0,VALID,93.4591,VALID,-0.101885,VALID,19.9236,VALID,130,VALID,1.47344,
2004-02-12, 01:08:01,VALID,919.312,VALID,0,VALID,93.3294,VALID,-0.0849042,VALID,19.9427,VALID,128,VALID,1.56399,
2004-02-12, 01:09:01,VALID,919.298,VALID,0,VALID,93.126,VALID,-0.0849042,VALID,19.9457,VALID,108,VALID,1.31917,
2004-02-12, 01:10:01,VALID,919.292,VALID,0,VALID,93.1832,VALID,-0.0679233,VALID,19.9265,VALID,105,VALID,1.12891,
2004-02-12, 01:11:01,VALID,919.29,VALID,0,VALID,93.3281,VALID,-0.0849042,VALID,19.891,VALID,119,VALID,1.19455,
2004-02-12, 01:12:01,VALID,919.305,VALID,0,VALID,93.3129,VALID,-0.101885,VALID,19.888,VALID,116,VALID,1.17764,
2004-02-12, 01:13:01,VALID,919.282,VALID,0,VALID,93.1984,VALID,-0.0679233,VALID,19.8711,VALID,97,VALID,0.99657,
2004-02-12, 01:14:01,VALID,919.274,VALID,0,VALID,93.2468,VALID,-0.0509425,VALID,19.8846,VALID,101,VALID,0.953835,
2004-02-12, 01:15:01,VALID,919.258,VALID,0,VALID,93.1145,VALID,-0.0849042,VALID,19.8682,VALID,105,VALID,1.04116,
2004-02-12, 01:16:01,VALID,919.213,VALID,0,VALID,93.2811,VALID,-0.0849042,VALID,19.8851,VALID,125,VALID,1.60781,
2004-02-12, 01:17:01,VALID,919.198,VALID,0,VALID,93.0446,VALID,-0.118866,VALID,19.894,VALID,105,VALID,1.43329,
2004-02-12, 01:18:01,VALID,919.187,VALID,0,VALID,93.0306,VALID,-0.101885,VALID,19.9015,VALID,111,VALID,1.47874,
2004-02-12, 01:19:00,VALID,919.153,VALID,0,VALID,92.8487,VALID,-0.101885,VALID,19.9203,VALID,113,VALID,1.26962,
2004-02-12, 01:20:00,VALID,919.134,VALID,0,VALID,92.714,VALID,-0.0849042,VALID,19.9626,VALID,136,VALID,1.57385,
2004-02-12, 01:21:00,VALID,919.108,VALID,0,VALID,92.3045,VALID,-0.118866,VALID,20.0108,VALID,139,VALID,1.37205,
2004-02-12, 01:22:00,VALID,919.104,VALID,0,VALID,91.9268,VALID,-0.135847,VALID,20.0326,VALID,121,VALID,1.74375,
2004-02-12, 01:23:00,VALID,919.082,VALID,0,VALID,91.7793,VALID,-0.101885,VALID,20.0629,VALID,110,VALID,1.13264,
2004-02-12, 01:24:00,VALID,919.083,VALID,0,VALID,92.054,VALID,-0.101885,VALID,20.0401,VALID,122,VALID,1.26067,
2004-02-12, 01:25:00,VALID,919.055,VALID,0,VALID,92.0108,VALID,-0.101885,VALID,20.0788,VALID,117,VALID,1.71693,
2004-02-12, 01:26:00,VALID,919.083,VALID,0,VALID,91.5937,VALID,-0.101885,VALID,20.1238,VALID,114,VALID,1.32369,
2004-02-12, 01:27:00,VALID,919.087,VALID,0,VALID,91.6585,VALID,-0.101885,VALID,20.1173,VALID,130,VALID,1.59527,
2004-02-12, 01:28:00,VALID,919.111,VALID,0,VALID,91.6687,VALID,-0.101885,VALID,20.1343,VALID,148,VALID,1.20676,
2004-02-12, 01:29:00,VALID,919.129,VALID,0,VALID,91.7526,VALID,-0.0169808,VALID,20.1196,VALID,142,VALID,1.35454,
2004-02-12, 01:30:00,VALID,919.152,VALID,0,VALID,91.7412,VALID,0,VALID,20.1449,VALID,132,VALID,1.67378,
2004-02-12, 01:31:00,VALID,919.164,VALID,0,VALID,91.5326,VALID,0,VALID,20.1667,VALID,152,VALID,0.700195,
2004-02-12, 01:32:00,VALID,919.161,VALID,0,VALID,91.5288,VALID,0,VALID,20.1769,VALID,150,VALID,1.58918,
2004-02-12, 01:33:00,VALID,919.138,VALID,0,VALID,91.4576,VALID,0.0169808,VALID,20.1864,VALID,143,VALID,1.04512,
2004-02-12, 01:34:00,VALID,919.106,VALID,0,VALID,91.3559,VALID,0.0169808,VALID,20.2162,VALID,143,VALID,1.33073,
2004-02-12, 01:35:00,VALID,919.105,VALID,0,VALID,91.2745,VALID,0.0169808,VALID,20.2383,VALID,141,VALID,1.48326,
2004-02-12, 01:36:00,VALID,919.1,VALID,0,VALID,91.0393,VALID,-0.0169808,VALID,20.2413,VALID,120,VALID,0.927782,
2004-02-12, 01:37:00,VALID,919.098,VALID,0,VALID,91.3533,VALID,0,VALID,20.2259,VALID,142,VALID,1.25856,
2004-02-12, 01:38:00,VALID,919.099,VALID,0,VALID,91.4945,VALID,0.0169808,VALID,20.2028,VALID,136,VALID,1.17728,
2004-02-12, 01:39:00,VALID,919.106,VALID,0,VALID,91.5377,VALID,0.0169808,VALID,20.1941,VALID,148,VALID,1.40352,
2004-02-12, 01:40:00,VALID,919.09,VALID,0,VALID,91.5136,VALID,0,VALID,20.1844,VALID,137,VALID,1.12074,
2004-02-12, 01:41:00,VALID,919.075,VALID,0,VALID,91.5225,VALID,0,VALID,20.1896,VALID,132,VALID,1.32635,
2004-02-12, 01:42:00,VALID,919.073,VALID,0,VALID,91.4652,VALID,0,VALID,20.2028,VALID,132,VALID,1.26804,
2004-02-12, 01:43:00,VALID,919.065,VALID,0,VALID,91.5479,VALID,0,VALID,20.1737,VALID,131,VALID,1.35844,
2004-02-12, 01:44:00,VALID,919.032,VALID,0,VALID,91.8963,VALID,0,VALID,20.1479,VALID,130,VALID,1.52973,
2004-02-12, 01:45:00,VALID,919.006,VALID,0,VALID,92.0807,VALID,0,VALID,20.1355,VALID,131,VALID,1.54457,
2004-02-12, 01:46:00,VALID,918.99,VALID,0,VALID,92.1545,VALID,0,VALID,20.1317,VALID,140,VALID,2.10156,
2004-02-12, 01:47:00,VALID,918.979,VALID,0,VALID,92.0451,VALID,0.0509425,VALID,20.1446,VALID,145,VALID,2.00409,
2004-02-12, 01:48:00,VALID,918.953,VALID,0,VALID,91.8925,VALID,0,VALID,20.1837,VALID,133,VALID,1.38899,
2004-02-12, 01:49:00,VALID,918.958,VALID,0,VALID,91.7336,VALID,0,VALID,20.1901,VALID,125,VALID,1.38393,
2004-02-12, 01:50:00,VALID,918.958,VALID,0,VALID,91.9192,VALID,0.0169808,VALID,20.1543,VALID,123,VALID,1.55227,
2004-02-12, 01:51:00,VALID,918.949,VALID,0,VALID,92.082,VALID,0.0169808,VALID,20.1374,VALID,137,VALID,1.26563,
2004-02-12, 01:52:00,VALID,918.951,VALID,0,VALID,92.1646,VALID,0,VALID,20.125,VALID,125,VALID,1.49123,
2004-02-12, 01:53:00,VALID,918.939,VALID,0,VALID,92.0832,VALID,0,VALID,20.1315,VALID,143,VALID,1.40282,
2004-02-12, 01:54:00,VALID,918.936,VALID,0,VALID,91.8912,VALID,0,VALID,20.1546,VALID,133,VALID,1.53616,
2004-02-12, 01:55:00,VALID,918.922,VALID,0,VALID,91.6013,VALID,0.0169808,VALID,20.1673,VALID,122,VALID,1.33629,
2004-02-12, 01:56:00,VALID,918.906,VALID,0,VALID,91.5047,VALID,-0.0169808,VALID,20.1834,VALID,129,VALID,1.28746,
2004-02-12, 01:57:00,VALID,918.873,VALID,0,VALID,91.5555,VALID,0,VALID,20.1735,VALID,131,VALID,1.40197,
2004-02-12, 01:58:00,VALID,918.852,VALID,0,VALID,91.7056,VALID,0,VALID,20.1901,VALID,128,VALID,1.60738,
2004-02-12, 01:59:00,VALID,918.838,VALID,0,VALID,91.7094,VALID,0,VALID,20.1963,VALID,131,VALID,1.42951,
2004-02-12, 02:00:00,VALID,918.808,VALID,0,VALID,91.9218,VALID,0.0169808,VALID,20.1797,VALID,126,VALID,1.5359,
2004-02-12, 02:01:00,VALID,918.791,VALID,0,VALID,92.0451,VALID,0,VALID,20.1837,VALID,133,VALID,1.62221,
2004-02-12, 02:02:00,VALID,918.79,VALID,0,VALID,92.0311,VALID,0.0169808,VALID,20.17,VALID,110,VALID,0.93784,
2004-02-12, 02:03:00,VALID,918.801,VALID,0,VALID,92.1519,VALID,0,VALID,20.1471,VALID,118,VALID,0.854651,
2004-02-12, 02:04:00,VALID,918.808,VALID,0,VALID,92.3821,VALID,0,VALID,20.1186,VALID,144,VALID,1.02204,
2004-02-12, 02:05:00,VALID,918.816,VALID,0,VALID,92.3986,VALID,0,VALID,20.0768,VALID,114,VALID,0.846528,
2004-02-12, 02:06:00,VALID,918.812,VALID,0,VALID,92.8971,VALID,0,VALID,20.009,VALID,128,VALID,1.31548,
2004-02-12, 02:07:00,VALID,918.788,VALID,0,VALID,93.2137,VALID,0.0169808,VALID,19.9799,VALID,139,VALID,1.36496,
2004-02-12, 02:08:00,VALID,918.765,VALID,0,VALID,93.2226,VALID,0,VALID,19.9767,VALID,129,VALID,1.45446,
2004-02-12, 02:09:00,VALID,918.74,VALID,0,VALID,93.1527,VALID,0,VALID,19.9929,VALID,132,VALID,1.48977,
2004-02-12, 02:10:00,VALID,918.723,VALID,0,VALID,93.0166,VALID,0.0169808,VALID,20.0055,VALID,146,VALID,1.18262,
2004-02-12, 02:11:00,VALID,918.709,VALID,0,VALID,93.0102,VALID,0,VALID,19.9956,VALID,123,VALID,1.07068,
2004-02-12, 02:12:00,VALID,918.711,VALID,0,VALID,93.1794,VALID,0,VALID,19.9573,VALID,115,VALID,1.51278,
2004-02-12, 02:13:00,VALID,918.716,VALID,0,VALID,93.5825,VALID,0,VALID,19.9447,VALID,142,VALID,1.39397,
2004-02-12, 02:14:00,VALID,918.704,VALID,0,VALID,93.6003,VALID,0.0169808,VALID,19.9442,VALID,148,VALID,0.687863,
2004-02-12, 02:15:00,VALID,918.71,VALID,0,VALID,93.5074,VALID,-0.0169808,VALID,19.9375,VALID,118,VALID,0.930432,
2004-02-12, 02:16:00,VALID,918.683,VALID,0,VALID,93.6079,VALID,0.0509425,VALID,19.9245,VALID,130,VALID,1.11879,
2004-02-12, 02:17:00,VALID,918.672,VALID,0,VALID,93.8419,VALID,0.0339617,VALID,19.925,VALID,131,VALID,1.67596,
2004-02-12, 02:18:00,VALID,918.658,VALID,0,VALID,93.7249,VALID,0,VALID,19.9178,VALID,130,VALID,1.0585,
2004-02-12, 02:19:00,VALID,918.637,VALID,0,VALID,93.6524,VALID,0,VALID,19.9154,VALID,113,VALID,1.06668,
2004-02-12, 02:20:00,VALID,918.609,VALID,0,VALID,93.6422,VALID,0,VALID,19.9027,VALID,131,VALID,0.817336,
2004-02-12, 02:21:00,VALID,918.583,VALID,0,VALID,93.73,VALID,0,VALID,19.8664,VALID,120,VALID,1.11923,
2004-02-12, 02:22:00,VALID,918.588,VALID,0,VALID,93.6486,VALID,0,VALID,19.8828,VALID,115,VALID,1.37397,
2004-02-12, 02:23:00,VALID,918.594,VALID,0,VALID,93.5227,VALID,0.0169808,VALID,19.8992,VALID,127,VALID,1.30984,
2004-02-12, 02:24:00,VALID,918.609,VALID,0,VALID,93.3358,VALID,0,VALID,19.9121,VALID,126,VALID,1.01971,
2004-02-12, 02:25:00,VALID,918.622,VALID,0,VALID,93.2442,VALID,0,VALID,19.9255,VALID,144,VALID,1.30593,
2004-02-12, 02:26:00,VALID,918.637,VALID,0,VALID,93.3523,VALID,0,VALID,19.938,VALID,141,VALID,1.02046,
2004-02-12, 02:27:00,VALID,918.644,VALID,0,VALID,93.4324,VALID,0.0169808,VALID,19.9576,VALID,148,VALID,1.06441,
2004-02-12, 02:28:00,VALID,918.636,VALID,0,VALID,93.2747,VALID,0.0169808,VALID,19.9765,VALID,141,VALID,0.961133,
2004-02-12, 02:29:00,VALID,918.626,VALID,0,VALID,93.1934,VALID,-0.0169808,VALID,19.9765,VALID,151,VALID,0.976381,
2004-02-12, 02:30:00,VALID,918.62,VALID,0,VALID,93.2785,VALID,0.0169808,VALID,19.9929,VALID,132,VALID,1.10174,
2004-02-12, 02:31:00,VALID,918.598,VALID,0,VALID,93.1921,VALID,0,VALID,19.9867,VALID,140,VALID,1.15588,
2004-02-12, 02:32:00,VALID,918.595,VALID,0,VALID,93.1196,VALID,0,VALID,19.9901,VALID,136,VALID,0.626635,
2004-02-12, 02:33:00,VALID,918.59,VALID,0,VALID,93.1285,VALID,-0.0169808,VALID,19.9643,VALID,147,VALID,0.324751,
2004-02-12, 02:34:00,VALID,918.595,VALID,0,VALID,92.9912,VALID,0,VALID,19.964,VALID,137,VALID,0.507254,
2004-02-12, 02:35:00,VALID,918.578,VALID,0,VALID,92.8475,VALID,0,VALID,19.9511,VALID,148,VALID,0.551153,
2004-02-12, 02:36:00,VALID,918.564,VALID,0,VALID,92.9632,VALID,0,VALID,19.9218,VALID,152,VALID,0.559593,
2004-02-12, 02:37:00,VALID,918.536,VALID,0,VALID,93.0751,VALID,0,VALID,19.9091,VALID,156,VALID,0.489644,
2004-02-12, 02:38:00,VALID,918.505,VALID,0,VALID,93.1196,VALID,-0.0169808,VALID,19.9027,VALID,145,VALID,0.697088,
2004-02-12, 02:39:00,VALID,918.5,VALID,0,VALID,93.0662,VALID,0,VALID,19.9091,VALID,120,VALID,1.06741,
2004-02-12, 02:40:00,VALID,918.469,VALID,0,VALID,92.9823,VALID,0,VALID,19.9059,VALID,128,VALID,1.06977,
2004-02-12, 02:41:00,VALID,918.468,VALID,0,VALID,93.1463,VALID,-0.0169808,VALID,19.9062,VALID,146,VALID,1.03198,
2004-02-12, 02:42:00,VALID,918.462,VALID,0,VALID,93.1883,VALID,0,VALID,19.896,VALID,135,VALID,0.665179,
2004-02-12, 02:43:00,VALID,918.448,VALID,0,VALID,93.3409,VALID,0,VALID,19.8962,VALID,143,VALID,1.20521,
2004-02-12, 02:44:00,VALID,918.433,VALID,0,VALID,93.379,VALID,0,VALID,19.9091,VALID,144,VALID,1.13815,
2004-02-12, 02:45:00,VALID,918.425,VALID,0,VALID,93.29,VALID,0.0339617,VALID,19.9315,VALID,148,VALID,1.45742,
2004-02-12, 02:46:00,VALID,918.413,VALID,0,VALID,93.2518,VALID,0,VALID,19.9447,VALID,152,VALID,1.29403,
2004-02-12, 02:47:00,VALID,918.424,VALID,0,VALID,93.2913,VALID,0,VALID,19.9541,VALID,160,VALID,1.15699,
2004-02-12, 02:48:00,VALID,918.433,VALID,0,VALID,93.29,VALID,0,VALID,19.9444,VALID,148,VALID,0.953472,
2004-02-12, 02:49:00,VALID,918.443,VALID,0,VALID,93.3269,VALID,0,VALID,19.9444,VALID,148,VALID,1.08975,
2004-02-12, 02:50:00,VALID,918.481,VALID,0,VALID,93.3091,VALID,0.0169808,VALID,19.9317,VALID,149,VALID,1.06715,
2004-02-12, 02:51:00,VALID,918.488,VALID,0,VALID,93.407,VALID,0,VALID,19.9156,VALID,139,VALID,1.27126,
2004-02-12, 02:52:00,VALID,918.491,VALID,0,VALID,93.4426,VALID,0,VALID,19.896,VALID,144,VALID,0.848558,
2004-02-12, 02:53:00,VALID,918.49,VALID,0,VALID,93.5965,VALID,0,VALID,19.8831,VALID,145,VALID,1.19494,
2004-02-12, 02:54:00,VALID,918.463,VALID,0,VALID,93.7122,VALID,0,VALID,19.886,VALID,144,VALID,1.06864,
2004-02-12, 02:55:00,VALID,918.442,VALID,0,VALID,93.5024,VALID,0.0169808,VALID,19.8927,VALID,100,VALID,1.10245,
2004-02-12, 02:56:00,VALID,918.41,VALID,0,VALID,93.5469,VALID,0,VALID,19.8771,VALID,99,VALID,0.898619,
2004-02-12, 02:57:00,VALID,918.38,VALID,0,VALID,93.8037,VALID,0,VALID,19.8575,VALID,123,VALID,1.84989,
2004-02-12, 02:58:00,VALID,918.358,VALID,0,VALID,93.7007,VALID,0,VALID,19.8704,VALID,120,VALID,0.947731,
2004-02-12, 02:59:00,VALID,918.353,VALID,0,VALID,93.8889,VALID,-0.0169808,VALID,19.8478,VALID,127,VALID,1.16406,
2004-02-12, 03:00:00,VALID,918.354,VALID,0,VALID,93.9779,VALID,-0.0169808,VALID,19.8416,VALID,127,VALID,1.10119,
2004-02-12, 03:01:00,VALID,918.359,VALID,0,VALID,94.2068,VALID,0,VALID,19.8252,VALID,137,VALID,1.27832,
2004-02-12, 03:02:00,VALID,918.361,VALID,0,VALID,94.1572,VALID,-0.0339617,VALID,19.8215,VALID,133,VALID,1.19722,
2004-02-12, 03:03:00,VALID,918.365,VALID,0,VALID,94.0886,VALID,0,VALID,19.8349,VALID,125,VALID,1.16254,
2004-02-12, 03:04:00,VALID,918.357,VALID,0,VALID,94.1229,VALID,-0.0339617,VALID,19.8282,VALID,139,VALID,1.40301,
2004-02-12, 03:05:00,VALID,918.347,VALID,0,VALID,94.0949,VALID,-0.0169808,VALID,19.8383,VALID,125,VALID,1.27071,
2004-02-12, 03:06:00,VALID,918.326,VALID,0,VALID,93.9398,VALID,-0.0169808,VALID,19.8185,VALID,119,VALID,0.871094,
2004-02-12, 03:07:00,VALID,918.313,VALID,0,VALID,94.1318,VALID,-0.0339617,VALID,19.8061,VALID,101,VALID,1.20713,
2004-02-12, 03:08:00,VALID,918.298,VALID,0,VALID,94.0288,VALID,-0.0169808,VALID,19.7536,VALID,92,VALID,0.902902,
2004-02-12, 03:09:00,VALID,918.294,VALID,0,VALID,94.3225,VALID,-0.0169808,VALID,19.7218,VALID,116,VALID,0.954297,
2004-02-12, 03:10:00,VALID,918.297,VALID,0,VALID,94.5959,VALID,-0.0169808,VALID,19.6963,VALID,117,VALID,0.90253,
2004-02-12, 03:11:00,VALID,918.285,VALID,0,VALID,94.7422,VALID,-0.0169808,VALID,19.6766,VALID,127,VALID,1.48456,
2004-02-12, 03:12:00,VALID,918.29,VALID,0,VALID,94.8223,VALID,0,VALID,19.6804,VALID,125,VALID,1.47584,
2004-02-12, 03:13:00,VALID,918.267,VALID,0,VALID,94.8045,VALID,-0.0169808,VALID,19.667,VALID,129,VALID,1.28961,
2004-02-12, 03:14:00,VALID,918.234,VALID,0,VALID,94.8757,VALID,-0.0169808,VALID,19.6868,VALID,123,VALID,1.34464,
2004-02-12, 03:15:00,VALID,918.216,VALID,0,VALID,94.6875,VALID,-0.0169808,VALID,19.6861,VALID,117,VALID,1.30208,
2004-02-12, 03:16:00,VALID,918.201,VALID,0,VALID,94.6506,VALID,0,VALID,19.6769,VALID,111,VALID,1.36038,
2004-02-12, 03:17:00,VALID,918.182,VALID,0,VALID,94.8312,VALID,-0.0339617,VALID,19.6674,VALID,105,VALID,1.12576,
2004-02-12, 03:18:00,VALID,918.169,VALID,0,VALID,94.9113,VALID,-0.0169808,VALID,19.6414,VALID,127,VALID,1.33558,
2004-02-12, 03:19:00,VALID,918.165,VALID,0,VALID,95.0919,VALID,0,VALID,19.6573,VALID,134,VALID,1.41602,
2004-02-12, 03:20:00,VALID,918.17,VALID,0,VALID,94.8655,VALID,-0.0169808,VALID,19.6796,VALID,122,VALID,1.10836,
2004-02-12, 03:21:00,VALID,918.158,VALID,0,VALID,94.7969,VALID,-0.0169808,VALID,19.7186,VALID,122,VALID,1.42076,
2004-02-12, 03:22:00,VALID,918.148,VALID,0,VALID,94.6074,VALID,0,VALID,19.7216,VALID,129,VALID,1.51414,
2004-02-12, 03:23:00,VALID,918.144,VALID,0,VALID,94.479,VALID,0,VALID,19.7574,VALID,123,VALID,1.53785,
2004-02-12, 03:24:00,VALID,918.131,VALID,0,VALID,94.1394,VALID,-0.0169808,VALID,19.7638,VALID,105,VALID,1.21755,
2004-02-12, 03:25:00,VALID,918.126,VALID,0,VALID,94.3162,VALID,0,VALID,19.7313,VALID,109,VALID,1.1577,
2004-02-12, 03:26:00,VALID,918.114,VALID,0,VALID,94.4828,VALID,0,VALID,19.7055,VALID,104,VALID,0.903201,
2004-02-12, 03:27:00,VALID,918.128,VALID,0,VALID,94.6417,VALID,-0.0339617,VALID,19.696,VALID,111,VALID,1.02362,
2004-02-12, 03:28:00,VALID,918.146,VALID,0,VALID,94.5832,VALID,-0.0509425,VALID,19.6637,VALID,78,VALID,1.05107,
2004-02-12, 03:29:00,VALID,918.156,VALID,0,VALID,94.9444,VALID,0,VALID,19.6443,VALID,100,VALID,1.02734,
2004-02-12, 03:30:00,VALID,918.156,VALID,0,VALID,95.0067,VALID,-0.0169808,VALID,19.6575,VALID,131,VALID,1.25229,
2004-02-12, 03:31:00,VALID,918.164,VALID,0,VALID,95.102,VALID,-0.0169808,VALID,19.6699,VALID,141,VALID,1.49888,
2004-02-12, 03:32:00,VALID,918.151,VALID,0,VALID,94.9978,VALID,0,VALID,19.7062,VALID,143,VALID,1.18004,
2004-02-12, 03:33:00,VALID,918.159,VALID,0,VALID,94.8884,VALID,0,VALID,19.7189,VALID,149,VALID,1.03373,
2004-02-12, 03:34:00,VALID,918.14,VALID,0,VALID,94.8464,VALID,-0.0339617,VALID,19.7127,VALID,126,VALID,1.31895,
2004-02-12, 03:35:00,VALID,918.13,VALID,0,VALID,94.6379,VALID,-0.0339617,VALID,19.6992,VALID,115,VALID,0.99891,
2004-02-12, 03:36:00,VALID,918.112,VALID,0,VALID,94.9164,VALID,0,VALID,19.664,VALID,132,VALID,1.60582,
2004-02-12, 03:37:00,VALID,918.109,VALID,0,VALID,95.0054,VALID,-0.0509425,VALID,19.6709,VALID,126,VALID,1.54996,
2004-02-12, 03:38:00,VALID,918.112,VALID,0,VALID,95.0791,VALID,-0.0339617,VALID,19.6714,VALID,131,VALID,1.37918,